Location: Meinert
(37.9441°N, 122.0275°W)
Time: 19:26:48
(UTC+00:00)

Cosmos 1908 - Pass Details

Date: 18 April 2024
Orbit: 467 x 484 km, 82.5° (Epoch: 23 May)

Event Time Altitude Azimuth Distance (km) Brightness Sun altitude
Rises 12:39:49 0° 353° (N) 2,555 6.9 -9.8°
Maximum altitude 12:45:35 84° 84° (E) 486 3.1 -8.7°
Drops below altitude 10° 12:49:10 10° 172° (S) 1,638 5.6 -8.1°
Sets 12:51:14 0° 173° (S) 2,506 6.5 -7.7°
